Regional Weather Roundup
Issued by NWS

Home | Current Version | Previous Version | Graphics & Text | Print | Product List | Glossary On
Versions: 1 2 3 4 5 6 7 8 9 10 11 12 13 14 15 16 17 18 19 20 21 22 23 24 25 26 27 28 29 30 31 32 33 34 35 36 37 38 39 40 41 42 43 44 45 46 47 48 49 50
000
ASUS43 KMPX 220710
RWRMN
WEATHER ROUNDUP FOR MINNESOTA
NATIONAL WEATHER SERVICE TWIN CITIES/CHANHASSEN MN
200 AM CDT SAT JUL 22 2017


NOTE: "FAIR" INDICATES FEW OR NO CLOUDS BELOW 12,000 FEET WITH NO
SIGNIFICANT WEATHER AND/OR OBSTRUCTIONS TO VISIBILITY. N/A MEANS
CURRENT SKY AND/OR WEATHER CONDITIONS ARE NOT AVAILABLE.

MNZ060>063-068>070-220800-
   Twin Cities Metro

CITY           SKY/WX    TMP DP  RH WIND       PRES   REMARKS
TWIN CITIES    CLOUDY    71  65  81 SE7       29.78F
ST PAUL        MOCLDY    69  67  93 SE9       29.77F
CRYSTAL        CLOUDY    71  62  73 S9        29.75F
BLAINE         CLOUDY    72  64  78 S7        29.75R
LAKEVILLE      CLOUDY    68  68 100 S8        29.79F
EDEN PRAIRIE   CLOUDY    72  66  81 SE8       29.78F
SOUTH ST PAUL  PTCLDY    71  64  79 S5        29.78F
LAKE ELMO      FAIR      68  64  88 S9        29.77F
$$
MNZ001>005-007-008-013>017-022>024-027-028-220800-
   Northwest Minnesota

CITY           SKY/WX    TMP DP  RH WIND       PRES   REMARKS
BEMIDJI        CLOUDY    64  64  99 E5        29.78S
HALLOCK        CLOUDY    66  64  94 SE12      29.74F
ROSEAU         CLOUDY    63  57  82 SE3       29.79S
WARROAD        CLOUDY    66  61  82 E6        29.81R
THIEF RVR FALL CLOUDY    65  64  97 CALM      29.79R
CROOKSTON      MOCLDY    66  64  94 SE5       29.76S
FOSSTON        MOCLDY    63  61  94 CALM      29.78S
DETROIT LAKES  CLEAR     68  64  88 SW3       29.78F
MOORHEAD       PTCLDY    72  66  83 S9        29.75F
PARK RAPIDS    CLOUDY    66  62  87 CALM      29.78F
MAHNOMEN       FAIR      66  65  97 S6        29.76F
$$
MNZ006-009>011-018-025>026-220800-
   North Central Minnesota

CITY           SKY/WX    TMP DP  RH WIND       PRES   REMARKS
BAUDETTE       PTCLDY    61  60  97 E6        29.78F
FLAG ISLAND    MOCLDY    66  57  72 E5        29.80R
INTL FALLS     PTCLDY    53  53 100 CALM      29.81S
BIG FORK       CLOUDY    61  59  94 CALM      29.80F FOG
LONGVILLE      MOCLDY    63  63 100 CALM      29.79F FOG
GRAND RAPIDS   CLOUDY    64  63  96 SE3       29.83S
CRANE LAKE     CLEAR     54  54 100 CALM      29.83F FOG
ORR            CLEAR     55  54  94 CALM      29.79F FOG
COOK           CLEAR     57  55  94 CALM      29.81F FOG
WALKER         FAIR      64  63  97 SE5       29.78F
$$
MNZ012-019>021-037-220800-
   Northeast Minnesota

CITY           SKY/WX    TMP DP  RH WIND       PRES   REMARKS
DULUTH         CLOUDY    59  59 100 N6        29.80S
ELY            PTCLDY    55  54  94 CALM      29.82F
HIBBING        CLOUDY    54  54 100 CALM      29.80F FOG
EVELETH        CLOUDY    60  57  91 CALM      29.82F FOG
DULUTH HARBOR  CLOUDY    64  63  94 SW3       29.78S
TWO HARBORS    MOCLDY    61  55  82 CALM      29.78S
SILVER BAY     PTCLDY    57  57 100 CALM      29.78F
GRAND MARAIS     N/A     66  55  67 NE7       29.79F
G MARAIS ARPRT CLOUDY    59  48  67 NE7       29.85F
$$
MNZ029>031-032-039>041-046>048-054>057-064-220800-
   West Central Minnesota

CITY           SKY/WX    TMP DP  RH WIND       PRES   REMARKS
FERGUS FALLS   CLOUDY    70  68  94 CALM      29.79F
WHEATON        CLOUDY    72  64  78 S9        29.81S
MORRIS         CLOUDY    72  66  83 S5        29.77F
ALEXANDRIA     CLOUDY    68  66  93 NE5       29.84R
ELBOW LAKE     FAIR      66  66  99 SE6       29.80F
WADENA         MOCLDY    64  64 100 SW3       29.79S
GLENWOOD       CLOUDY    68  66  94 S5        29.81S
APPLETON       CLOUDY    73  68  83 SE7       29.79F
BENSON         LGT RAIN  70  66  88 SW10      29.81R
ORTONVILLE     CLOUDY    73  66  78 CALM      29.81R
MADISON        LGT RAIN  75  73  94 S20       29.76F
WILLMAR        FAIR      72  70  94 CALM      29.84R
$$
MNZ033>034-036-042>043-049>051-058-059-220800-
   Central Minnesota

CITY           SKY/WX    TMP DP  RH WIND       PRES   REMARKS
ST CLOUD       CLOUDY    66  66 100 SW5       29.79R
SAUK CENTRE    DRIZZLE   66  65  98 CALM      29.81F
PAYNESVILLE    LGT RAIN  72  67  85 CALM      29.83R
AITKIN         CLOUDY    63  61  94 CALM      29.79S
PINE RIVER     MOCLDY    63  63 100 CALM      29.82F
BRAINERD       PTCLDY    65  64  97 CALM      29.79S
STAPLES        CLOUDY    64  63  94 S3        29.79F
LONG PRAIRIE   FAIR      64  64 100 S6        29.82S
LITTLE FALLS   CLOUDY    64  63  94 CALM      29.80R
LITCHFIELD     CLOUDY    73  68  83 SE3       29.82R
BUFFALO        CLOUDY    71  62  74 CALM      29.81R
MAPLE LAKE     CLOUDY    69  65  89 CALM      29.82R
HUTCHINSON     CLOUDY    72  69  92 CALM      29.83R
$$
MNZ037-044-045-052-053-220800-
   East Central Minnesota

CITY           SKY/WX    TMP DP  RH WIND       PRES   REMARKS
PRINCETON      MOCLDY    66  64  94 W3        29.78R
MORA           PTCLDY    63  63 100 CALM      29.79S
CAMBRIDGE      CLOUDY    66  64  94 CALM      29.76R
RUSH CITY      CLOUDY    64  62  94 CALM      29.79R
MOOSE LAKE     CLOUDY    61  59  94 CALM      29.77F FOG
HINCKLEY       FAIR      63  63 100 CALM      29.78R
CLOQUET        MOCLDY    63  59  88 NW3       29.79F
MCGREGOR       PTCLDY    63  61  94 CALM      29.80S
$$
MNZ071>073-080-081-089-090-097-098-220800-
   Southwest Minnesota

CITY           SKY/WX    TMP DP  RH WIND       PRES   REMARKS
MONTEVIDEO     LGT RAIN  73  66  78 S5        29.83R
GRANITE FALLS  CLOUDY    72  70  93 W5        29.84R
CANBY          TSTM      73  70  91 W5        29.91R
MARSHALL       CLOUDY    72  68  87 SE6       29.83R
REDWOOD FALLS  CLOUDY    71  67  87 SE7       29.81R
OLIVIA         CLOUDY    70  66  88 SE3       29.83R
PIPESTONE      CLOUDY    72  70  94 SE8       29.83F
WINDOM         CLOUDY    70  68  94 E5        29.85R
WORTHINGTON    CLOUDY    72  70  93 E8        29.85R
JACKSON        CLOUDY    72  70  94 E7        29.85R
SLAYTON        CLOUDY    69  66  91 E5        29.86R
$$
MNZ065>067-074>077-082>085-091>093-220800-
   South Central Minnesota

CITY           SKY/WX    TMP DP  RH WIND       PRES   REMARKS
MANKATO        PTCLDY    70  68  93 E10       29.82R
NEW ULM        CLOUDY    70  66  88 E8        29.82R
ST JAMES       CLEAR     70  68  94 E3        29.84R
FAIRMONT       CLOUDY    72  70  93 E10       29.84R
GLENCOE        CLOUDY    72  71  95 SE7       29.80R
FARIBAULT      CLEAR     70  66  88 E8        29.83F
OWATONNA       PTCLDY    70  66  88 E12       29.84S
WASECA         MOCLDY    70  66  88 E10G20    29.86R
ALBERT LEA     CLOUDY    70  66  88 NE8       29.84S
$$
MNZ078>079-086>088-094>096-220800-
   Southeast Minnesota

CITY           SKY/WX    TMP DP  RH WIND       PRES   REMARKS
ROCHESTER      CLOUDY    68  68 100 E10       29.85S FOG
RED WING       CLEAR     70  64  83 S6        29.78F
STANTON        CLEAR     69  66  90 S10       29.78F
DODGE CENTER   CLOUDY    68  66  94 NE8G16    29.86S
WINONA         CLOUDY    70  66  88 S3        29.82F
AUSTIN         CLOUDY    70  66  88 E12       29.84S
PRESTON        FOG       68  66  94 NE7       29.85F VSB 1/2
$$
ABBREVIATIONS USED IN REMARKS
   TC - TEMPERATURES IN CELSIUS
  WCI - WIND CHILL INDEX
   HX - HEAT INDEX
  VSB - VISIBILITY
$$




USA.gov is the U.S. government's official web portal to all federal, state and local government web resources and services.